Location: Unspecified
(0.0000°N, 0.0000°E)
Time: 09:00:50
(UTC+00:00)

deb r/b Ablestar - Pass Details

Date: 21 February 2026
Orbit: 902 x 2195 km, 67.6° (Epoch: 14 March)

Event Time Altitude Azimuth Distance (km) Brightness Sun altitude
Rises 20:10:15 0° 234° (SW) 4,470 ? -28.7°
Reaches altitude 10° 20:15:37 10° 262° (W) 3,183 ? -30.0°
Maximum altitude 20:18:21 12° 284° (WNW) 2,864 ? -30.6°
Drops below altitude 10° 20:20:55 10° 306° (NW) 2,904 ? -31.3°
Sets 20:25:17 0° 337° (NNW) 3,669 ? -32.3°
